M I D A S
Marine Information and Data Acquisition System
Tripno 1130 of the Zeeleeuw from 2006-07-03 08:53:43 to 2006-07-03 12:58:50
Back to CruiseResearch ActivitiesStationsMapUnderway DataData graphs

EquipmentUnitsComment
TimeDGPSUTC
LatitudeDGPSDM.mWGS84
LongitudeDGPSDM.mWGS84
TemperatureSBE03/SBE38deg celciusITS90
ConductivitySBE21S/mITS90
SalinitySBE21 Practical Salinity Units
ChlorophylAChelsea fluorimeterg/lCalibrated in Aceton
Missing or incorrect values are displayed as -999
Sea surface data collected by the RV Zeeleeuw from 2006-07-03 08:50:50 to 2006-07-03 13:09:31
Time Latitude Longitude Temperature Conductivity Salinity ChlorophylA
2006-07-03 08:51:55 51°13.599 2°56.1 24.1764 0.007472 0.039898 5.893212
2006-07-03 08:52:56 51°13.607 2°56.066 24.1232 0.007472 0.039895 5.926922
2006-07-03 08:53:56 51°13.638 2°55.954 24.2022 0.007472 0.039892 5.893212
2006-07-03 08:54:55 51°13.681 2°55.829 24.2199 0.007472 0.039888 5.893212
2006-07-03 08:55:55 51°13.7 2°55.755 24.2223 0.007472 0.039885 5.893212
2006-07-03 08:56:55 51°13.703 2°55.751 24.1899 0.007472 0.039881 5.926922
2006-07-03 08:57:56 51°13.705 2°55.734 24.3085 0.007472 0.039878 5.926922
2006-07-03 08:58:54 51°13.793 2°55.661 24.0464 0.007472 0.039874 5.893212
2006-07-03 08:59:55 51°13.916 2°55.565 24.1293 0.007472 0.039871 5.893212
2006-07-03 09:00:54 51°14.03 2°55.483 24.1885 0.007472 0.039869 5.926922
2006-07-03 09:01:56 51°14.159 2°55.389 24.2239 0.007472 0.039866 5.926922
2006-07-03 09:02:55 51°14.283 2°55.235 24.2303 0.007472 0.039864 5.926922
2006-07-03 09:03:55 51°14.384 2°55.007 24.1918 0.007472 0.039862 5.926922
2006-07-03 09:04:55 51°14.51 2°54.748 24.0418 0.007472 0.039859 5.926922
2006-07-03 09:05:55 51°14.697 2°54.614 24.1317 0.007472 0.039857 5.893212
2006-07-03 09:06:55 51°14.901 2°54.575 24.1224 0.007472 0.039856 5.926922
2006-07-03 09:07:55 51°15.104 2°54.539 24.1284 0.007472 0.039855 5.926922
2006-07-03 09:08:55 51°15.309 2°54.504 24.1704 0.007472 0.039856 5.926922
2006-07-03 09:09:55 51°15.512 2°54.459 24.1897 0.007472 0.039857 5.893212
2006-07-03 09:10:54 51°15.712 2°54.416 24.2196 0.007472 0.03986 5.893212
2006-07-03 09:11:55 51°15.92 2°54.367 24.1237 0.007472 0.039864 5.926922
2006-07-03 09:12:55 51°16.053 2°54.35 24.3156 0.007472 0.039869 5.926922
2006-07-03 09:13:55 51°16.11 2°54.382 24.2907 0.007472 0.039873 5.926922
2006-07-03 09:14:54 51°16.141 2°54.412 24.3216 0.007472 0.039877 5.926922
2006-07-03 09:15:55 51°16.16 2°54.435 24.3401 0.007472 0.039881 5.926922
2006-07-03 09:16:55 51°16.173 2°54.45 24.3512 0.007472 0.039881 5.960631
2006-07-03 09:17:55 51°16.183 2°54.459 24.3719 0.007472 0.039883 5.926922
2006-07-03 09:18:54 51°16.189 2°54.464 24.3739 0.007472 0.039883 5.960631
2006-07-03 09:19:54 51°16.192 2°54.465 24.3648 0.007472 0.039883 5.960631
2006-07-03 09:20:55 51°16.193 2°54.464 24.3926 0.007472 0.03988 5.926922
2006-07-03 09:21:55 51°16.192 2°54.46 24.4221 0.007472 0.039877 5.926922
2006-07-03 09:22:54 51°16.196 2°54.474 24.4671 0.007472 0.039872 5.960631
2006-07-03 09:23:55 51°16.23 2°54.484 24.4362 0.007472 0.03987 5.926922
2006-07-03 09:24:55 51°16.278 2°54.432 24.4192 0.007472 0.039866 5.960631
2006-07-03 09:25:55 51°16.334 2°54.355 24.4464 0.007472 0.039863 5.926922
2006-07-03 09:26:54 51°16.387 2°54.255 24.4584 0.007472 0.039861 5.960631
2006-07-03 09:27:55 51°16.435 2°54.108 24.426 0.007472 0.039859 5.994341
2006-07-03 09:28:54 51°16.474 2°53.961 24.4931 0.007472 0.039858 5.960631
2006-07-03 09:29:55 51°16.483 2°53.893 24.5118 0.007472 0.039859 5.994341
2006-07-03 09:30:55 51°16.478 2°53.874 24.4989 0.007472 0.039859 5.926922
2006-07-03 09:31:54 51°16.472 2°53.853 24.5073 0.007472 0.039859 5.960631
2006-07-03 09:32:54 51°16.466 2°53.831 24.528 0.007472 0.039859 5.926922
2006-07-03 09:33:55 51°16.458 2°53.806 24.5197 0.007472 0.039859 5.926922
2006-07-03 09:34:55 51°16.451 2°53.781 24.5371 0.007472 0.039859 5.926922
2006-07-03 09:35:55 51°16.444 2°53.754 24.573 0.007472 0.039859 5.960631
2006-07-03 09:36:55 51°16.437 2°53.727 24.554 0.007472 0.03986 5.960631
2006-07-03 09:37:55 51°16.431 2°53.7 24.6013 0.007472 0.039861 5.926922
2006-07-03 09:38:55 51°16.425 2°53.673 24.6017 0.007472 0.039861 5.960631
2006-07-03 09:39:55 51°16.418 2°53.648 24.6031 0.007472 0.039862 5.960631
2006-07-03 09:40:54 51°16.413 2°53.622 24.6194 0.007472 0.039864 5.960631
2006-07-03 09:41:55 51°16.406 2°53.595 24.6225 0.007472 0.039865 5.960631
2006-07-03 09:42:54 51°16.401 2°53.571 24.6415 0.007472 0.039867 5.994341
2006-07-03 09:43:55 51°16.395 2°53.544 24.6423 0.007472 0.03987 5.960631
2006-07-03 09:44:55 51°16.389 2°53.518 24.6593 0.007472 0.039872 5.994341
2006-07-03 09:45:54 51°16.383 2°53.491 24.6716 0.007472 0.039875 5.994341
2006-07-03 09:46:54 51°16.376 2°53.466 24.6851 0.007472 0.039878 5.960631
2006-07-03 09:47:54 51°16.37 2°53.438 24.6999 0.007472 0.039881 5.960631
2006-07-03 09:48:54 51°16.365 2°53.41 24.6439 0.007472 0.039885 5.994341
2006-07-03 09:49:55 51°16.358 2°53.384 24.6573 0.007472 0.039888 5.994341
2006-07-03 09:50:54 51°16.352 2°53.355 24.6606 0.007472 0.039891 5.994341
2006-07-03 09:51:55 51°16.346 2°53.327 24.6817 0.007472 0.039893 5.994341
2006-07-03 09:52:55 51°16.339 2°53.297 24.6838 0.007472 0.039896 5.994341
2006-07-03 09:53:55 51°16.332 2°53.269 24.6905 0.007472 0.039899 5.960631
2006-07-03 09:54:55 51°16.325 2°53.239 24.7206 0.007472 0.039901 5.994341
2006-07-03 09:55:55 51°16.319 2°53.209 24.7179 0.007472 0.039905 5.994341
2006-07-03 09:56:56 51°16.312 2°53.178 24.7571 0.007472 0.039907 5.994341
2006-07-03 09:57:55 51°16.305 2°53.148 24.7423 0.007472 0.03991 5.994341
2006-07-03 09:58:54 51°16.299 2°53.118 24.7964 0.007472 0.039913 5.960631
2006-07-03 09:59:54 51°16.291 2°53.088 24.769 0.007472 0.039916 6.02805
2006-07-03 10:00:54 51°16.284 2°53.058 24.7777 0.007472 0.039919 6.02805
2006-07-03 10:01:54 51°16.277 2°53.028 24.8192 0.007472 0.039922 6.02805
2006-07-03 10:02:54 51°16.27 2°52.997 24.8183 0.007472 0.039925 6.02805
2006-07-03 10:03:56 51°16.263 2°52.965 24.8267 0.007472 0.039928 6.02805
2006-07-03 10:04:55 51°16.255 2°52.935 24.839 0.007472 0.039931 6.02805
2006-07-03 10:05:55 51°16.248 2°52.904 24.835 0.007472 0.039933 6.02805
2006-07-03 10:06:55 51°16.239 2°52.875 24.8036 0.007472 0.039936 6.02805
2006-07-03 10:07:54 51°16.231 2°52.846 24.836 0.007472 0.039938 6.02805
2006-07-03 10:08:55 51°16.222 2°52.815 24.8555 0.007472 0.039941 6.061759
2006-07-03 10:09:54 51°16.221 2°52.781 24.8148 0.007472 0.039943 5.994341
2006-07-03 10:10:55 51°16.265 2°52.77 24.8365 0.007472 0.039946 6.02805
2006-07-03 10:11:55 51°16.282 2°52.841 24.8803 0.007472 0.039949 6.061759
2006-07-03 10:12:54 51°16.245 2°52.932 24.892 0.007472 0.039951 6.061759
2006-07-03 10:13:54 51°16.214 2°53.046 24.89 0.007472 0.039953 6.061759
2006-07-03 10:14:56 51°16.203 2°53.177 24.914 0.007472 0.039954 6.061759
2006-07-03 10:15:54 51°16.195 2°53.302 24.9282 0.007472 0.039954 6.061759
2006-07-03 10:16:55 51°16.184 2°53.435 24.9506 0.007472 0.039953 6.095469
2006-07-03 10:17:54 51°16.187 2°53.562 24.9561 0.007472 0.039952 6.061759
2006-07-03 10:18:55 51°16.194 2°53.691 24.9686 0.007472 0.03995 6.061759
2006-07-03 10:19:55 51°16.196 2°53.808 24.9763 0.007472 0.039949 6.061759
2006-07-03 10:20:54 51°16.196 2°53.916 24.9809 0.007472 0.039947 6.061759
2006-07-03 10:21:55 51°16.205 2°54.02 25.0318 0.007472 0.039945 6.061759
2006-07-03 10:22:54 51°16.24 2°54.148 24.9507 0.007472 0.039944 6.061759
2006-07-03 10:23:56 51°16.266 2°54.271 25.0491 0.007472 0.039943 6.095469
2006-07-03 10:24:55 51°16.261 2°54.274 25.0485 0.007472 0.039943 6.095469
2006-07-03 10:25:54 51°16.256 2°54.266 25.0581 0.007472 0.039942 6.095469
2006-07-03 10:26:55 51°16.249 2°54.251 25.0523 0.007472 0.039941 6.061759
2006-07-03 10:27:54 51°16.24 2°54.232 25.0624 0.007472 0.03994 6.095469
2006-07-03 10:28:55 51°16.231 2°54.209 25.0786 0.007368 0.039502 6.061759
2006-07-03 10:29:55 51°16.222 2°54.186 25.1107 0.007472 0.039939 6.095469
2006-07-03 10:30:54 51°16.229 2°54.176 25.1104 0.007472 0.039939 6.095469
2006-07-03 10:31:54 51°16.251 2°54.153 25.1042 0.007472 0.039938 6.095469
2006-07-03 10:32:54 51°16.269 2°54.125 25.1194 0.007472 0.039938 6.095469
2006-07-03 10:33:55 51°16.284 2°54.095 25.1381 0.007472 0.039939 6.095469
2006-07-03 10:34:55 51°16.298 2°54.065 25.1521 0.007472 0.039939 6.095469
2006-07-03 10:35:55 51°16.31 2°54.035 25.1502 0.007472 0.03994 6.095469
2006-07-03 10:36:54 51°16.322 2°54.005 25.146 0.007472 0.039941 6.095469
2006-07-03 10:37:55 51°16.333 2°53.975 25.1655 0.007472 0.039943 6.129178
2006-07-03 10:38:54 51°16.344 2°53.945 25.179 0.007472 0.039944 6.129178
2006-07-03 10:39:55 51°16.354 2°53.913 25.1862 0.007368 0.039507 6.095469
2006-07-03 10:40:53 51°16.362 2°53.882 20.0103 4.4796 30.370145 8.050614
2006-07-03 10:41:55 51°16.369 2°53.849 19.9321 4.354069 31.216238 6.904494
2006-07-03 10:42:55 51°16.374 2°53.817 19.9114 4.329507 31.112183 7.073042
2006-07-03 10:43:55 51°16.366 2°53.781 19.8853 4.336466 31.199733 7.241589
2006-07-03 10:44:55 51°16.354 2°53.744 19.8424 4.334463 31.218027 7.477554
2006-07-03 10:45:55 51°16.346 2°53.702 19.8403 4.332672 31.225009 7.74723
2006-07-03 10:46:55 51°16.368 2°53.617 19.8086 4.323078 31.154081 7.983195
2006-07-03 10:47:55 51°16.437 2°53.455 19.8711 4.331513 31.243372 8.084324
2006-07-03 10:48:56 51°16.443 2°53.397 19.9051 4.337732 31.246398 8.185452
2006-07-03 10:49:55 51°16.423 2°53.372 19.7112 4.31844 31.119368 8.353999
2006-07-03 10:50:54 51°16.412 2°53.336 19.7505 4.338893 31.370577 8.657383
2006-07-03 10:51:55 51°16.426 2°53.258 19.8081 4.340158 31.364997 8.85964
2006-07-03 10:52:53 51°16.458 2°53.165 19.9138 4.344796 31.348276 9.163024
2006-07-03 10:53:55 51°16.502 2°53.059 19.9809 4.351647 31.338976 9.4327
2006-07-03 10:54:55 51°16.552 2°52.959 19.9626 4.362189 31.386567 9.668665
2006-07-03 10:55:55 51°16.603 2°52.861 19.9719 4.368936 31.450758 9.870922
2006-07-03 10:56:55 51°16.654 2°52.765 19.929 4.376316 31.510102 10.174306
2006-07-03 10:57:55 51°16.71 2°52.687 19.8368 4.378004 31.553678 10.410272
2006-07-03 10:58:55 51°16.77 2°52.645 19.6202 4.371996 31.601401 10.713657
2006-07-03 10:59:54 51°16.828 2°52.614 19.4912 4.359664 31.647272 10.983332
2006-07-03 11:00:55 51°16.889 2°52.583 19.4089 4.353129 31.68297 11.219298
2006-07-03 11:01:55 51°16.949 2°52.55 19.4011 4.34807 31.691162 11.455264
2006-07-03 11:02:55 51°17.008 2°52.518 19.3699 4.346489 31.688493 11.69123
2006-07-03 11:03:54 51°17.066 2°52.488 19.3364 4.344275 31.698414 11.859777
2006-07-03 11:04:56 51°17.127 2°52.456 19.3052 4.341429 31.694584 12.129452
2006-07-03 11:05:55 51°17.185 2°52.425 19.2566 4.339532 31.706578 12.264289
2006-07-03 11:06:55 51°17.243 2°52.38 19.2184 4.334894 31.712407 12.466546
2006-07-03 11:07:55 51°17.302 2°52.333 19.1905 4.331943 31.712055 12.635093
2006-07-03 11:08:55 51°17.361 2°52.287 19.1808 4.331627 31.726235 12.76993
2006-07-03 11:09:55 51°17.418 2°52.242 19.2267 4.332365 31.732813 12.80364
2006-07-03 11:10:55 51°17.476 2°52.198 19.2672 4.337108 31.731578 12.871059
2006-07-03 11:11:55 51°17.534 2°52.153 19.2422 4.340587 31.742709 12.938477
2006-07-03 11:12:54 51°17.59 2°52.107 19.2038 4.340798 31.767142 13.039606
2006-07-03 11:13:55 51°17.648 2°52.059 19.2506 4.339639 31.777152 13.107024
2006-07-03 11:14:55 51°17.705 2°52.011 19.2968 4.344066 31.775454 13.107024
2006-07-03 11:15:55 51°17.762 2°51.965 19.3212 4.349126 31.786503 13.174443
2006-07-03 11:16:55 51°17.819 2°51.918 19.33 4.352815 31.794464 13.174443
2006-07-03 11:17:55 51°17.876 2°51.87 19.2881 4.352288 31.798807 13.241862
2006-07-03 11:18:55 51°17.934 2°51.824 19.2299 4.347756 31.796402 13.3767
2006-07-03 11:19:54 51°17.991 2°51.777 19.1513 4.341853 31.791466 13.477828
2006-07-03 11:20:55 51°18.05 2°51.732 19.0757 4.333947 31.78479 13.646375
2006-07-03 11:21:54 51°18.107 2°51.683 19.0052 4.323406 31.752159 13.814922
2006-07-03 11:22:55 51°18.165 2°51.623 18.9619 4.320033 31.77726 13.91605
2006-07-03 11:23:55 51°18.221 2°51.552 18.9308 4.315395 31.768583 14.017178
2006-07-03 11:24:55 51°18.276 2°51.477 18.9105 4.31139 31.756918 14.084597
2006-07-03 11:25:54 51°18.332 2°51.404 18.8999 4.308016 31.745536 14.219435
2006-07-03 11:26:54 51°18.388 2°51.33 18.8983 4.305592 31.73104 14.253144
2006-07-03 11:27:54 51°18.444 2°51.254 18.8786 4.304327 31.72554 14.286853
2006-07-03 11:28:55 51°18.498 2°51.163 18.8955 4.302957 31.725175 14.320563
2006-07-03 11:29:54 51°18.543 2°51.073 18.9308 4.302956 31.707716 14.354272
2006-07-03 11:30:55 51°18.57 2°51.007 18.9811 4.304853 31.69118 14.354272
2006-07-03 11:31:55 51°18.565 2°50.96 18.9591 4.307383 31.682054 14.354272
2006-07-03 11:32:55 51°18.557 2°50.912 18.9066 4.30517 31.700314 14.556529
2006-07-03 11:33:54 51°18.547 2°50.864 18.8985 4.303589 31.710194 14.657657
2006-07-03 11:34:55 51°18.537 2°50.814 18.8615 4.303273 31.719592 14.725076
2006-07-03 11:35:54 51°18.527 2°50.766 18.8412 4.298635 31.705416 14.859913
2006-07-03 11:36:56 51°18.517 2°50.716 18.7914 4.300427 31.750247 14.927332
2006-07-03 11:37:54 51°18.507 2°50.669 18.7588 4.29716 31.752317 14.927332
2006-07-03 11:38:55 51°18.497 2°50.621 18.7815 4.290519 31.70628 15.02846
2006-07-03 11:39:54 51°18.487 2°50.574 18.7918 4.292521 31.714596 15.095879
2006-07-03 11:40:55 51°18.475 2°50.525 18.807 4.29484 31.718404 15.129589
2006-07-03 11:41:55 51°18.464 2°50.476 18.8165 4.295894 31.723815 15.197007
2006-07-03 11:42:55 51°18.452 2°50.427 18.8092 4.291994 31.68619 15.230717
2006-07-03 11:43:54 51°18.441 2°50.378 18.8129 4.291467 31.688948 15.298136
2006-07-03 11:44:55 51°18.428 2°50.328 18.7974 4.294524 31.70978 15.298136
2006-07-03 11:45:55 51°18.416 2°50.279 18.7904 4.29231 31.702462 15.365554
2006-07-03 11:46:55 51°18.404 2°50.229 18.7893 4.292416 31.708801 15.399264
2006-07-03 11:47:55 51°18.394 2°50.177 18.785 4.288199 31.675115 15.432973
2006-07-03 11:48:55 51°18.401 2°50.127 18.8446 4.297371 31.750221 15.466683
2006-07-03 11:49:55 51°18.415 2°50.104 18.924 4.301165 31.726254 15.466683
2006-07-03 11:50:55 51°18.424 2°50.132 19.0225 4.306118 31.702124 15.399264
2006-07-03 11:51:56 51°18.434 2°50.215 19.0588 4.310861 31.686169 15.331845
2006-07-03 11:52:56 51°18.443 2°50.29 19.1131 4.313285 31.670791 15.264426
2006-07-03 11:53:55 51°18.45 2°50.363 19.153 4.31592 31.652854 15.264426
2006-07-03 11:54:55 51°18.452 2°50.438 19.1396 4.317185 31.641044 15.298136
2006-07-03 11:55:55 51°18.451 2°50.514 19.154 4.316447 31.644192 15.331845
2006-07-03 11:56:54 51°18.451 2°50.586 19.2048 4.31613 31.622157 15.365554
2006-07-03 11:57:55 51°18.45 2°50.646 19.2176 4.318027 31.604237 15.466683
2006-07-03 11:58:55 51°18.448 2°50.693 19.2247 4.318133 31.598096 15.500392
2006-07-03 11:59:54 51°18.443 2°50.733 19.2389 4.317605 31.587328 15.567811
2006-07-03 12:00:54 51°18.438 2°50.772 19.2433 4.317605 31.580333 15.668939
2006-07-03 12:01:55 51°18.432 2°50.809 19.2392 4.317289 31.573985 15.770067
2006-07-03 12:02:55 51°18.432 2°50.841 19.2184 4.316867 31.571617 15.837486
2006-07-03 12:03:55 51°18.439 2°50.867 19.2104 4.315181 31.572901 15.938614
2006-07-03 12:04:54 51°18.452 2°50.886 19.2107 4.313494 31.567729 16.039742
2006-07-03 12:05:56 51°18.469 2°50.903 19.1943 4.313283 31.563853 16.140871
2006-07-03 12:06:55 51°18.486 2°50.919 19.1616 4.311597 31.566753 16.17458
2006-07-03 12:07:55 51°18.503 2°50.938 19.1283 4.310122 31.582705 16.343127
2006-07-03 12:08:55 51°18.519 2°50.96 19.1099 4.308013 31.585411 16.410546
2006-07-03 12:09:55 51°18.537 2°50.987 19.1121 4.303375 31.557148 16.444255
2006-07-03 12:10:55 51°18.538 2°51.005 19.0047 4.307487 31.60216 16.511674
2006-07-03 12:11:55 51°18.523 2°51.006 18.9842 4.301795 31.623691 16.680221
2006-07-03 12:12:55 51°18.503 2°50.997 19.0163 4.300425 31.622745 16.74764
2006-07-03 12:13:54 51°18.483 2°50.98 19.0683 4.302006 31.611329 16.781349
2006-07-03 12:14:55 51°18.463 2°50.957 19.1085 4.304324 31.588679 16.815059
2006-07-03 12:15:55 51°18.443 2°50.931 19.1447 4.306327 31.57592 16.882477
2006-07-03 12:16:54 51°18.425 2°50.919 19.1886 4.308962 31.571599 16.983606
2006-07-03 12:17:55 51°18.416 2°50.925 19.2086 4.311175 31.556847 17.051024
2006-07-03 12:18:55 51°18.413 2°50.941 19.2133 4.31244 31.56019 17.084734
2006-07-03 12:19:54 51°18.414 2°50.966 19.2206 4.311491 31.550285 17.084734
2006-07-03 12:20:56 51°18.415 2°50.997 19.2336 4.31244 31.548895 17.084734
2006-07-03 12:21:55 51°18.415 2°51.027 19.2479 4.31381 31.550413 17.084734
2006-07-03 12:22:55 51°18.414 2°51.053 19.2528 4.314548 31.544081 17.084734
2006-07-03 12:23:55 51°18.412 2°51.078 19.2861 4.314337 31.539674 17.118443
2006-07-03 12:24:56 51°18.411 2°51.102 19.3238 4.316866 31.530269 17.118443
2006-07-03 12:25:54 51°18.409 2°51.124 19.3258 4.31792 31.516894 17.219571
2006-07-03 12:26:56 51°18.407 2°51.148 19.3406 4.318026 31.515611 17.253281
2006-07-03 12:27:55 51°18.405 2°51.171 19.3502 4.318974 31.513707 17.354409
2006-07-03 12:28:54 51°18.402 2°51.189 19.3778 4.318974 31.502471 17.421828
2006-07-03 12:29:55 51°18.392 2°51.185 19.3859 4.319712 31.488704 17.421828
2006-07-03 12:30:55 51°18.377 2°51.176 19.3864 4.320028 31.485937 17.556665
2006-07-03 12:31:55 51°18.332 2°51.245 19.2465 4.308326 31.391259 17.624084
2006-07-03 12:32:55 51°18.2 2°51.329 19.1476 4.310647 31.522975 17.758922
2006-07-03 12:33:55 51°18.027 2°51.505 18.9564 4.304851 31.568693 17.86005
2006-07-03 12:34:54 51°17.852 2°51.688 18.9228 4.293468 31.593809 18.129725
2006-07-03 12:35:55 51°17.67 2°51.877 18.9424 4.288408 31.580984 18.567947
2006-07-03 12:36:55 51°17.481 2°52.05 19.0049 4.288197 31.547257 18.669076
2006-07-03 12:37:55 51°17.299 2°52.232 19.212 4.296524 31.549597 18.601657
2006-07-03 12:38:54 51°17.107 2°52.385 19.3091 4.316235 31.560538 18.298272
2006-07-03 12:39:55 51°16.912 2°52.551 19.3562 4.324562 31.576397 18.197144
2006-07-03 12:40:55 51°16.731 2°52.736 19.4041 4.329516 31.580308 17.994888
2006-07-03 12:41:55 51°16.54 2°52.905 19.4148 4.334681 31.591295 18.028597
2006-07-03 12:42:55 51°16.335 2°53.021 19.4253 4.334259 31.578227 17.927469
2006-07-03 12:43:55 51°16.128 2°53.132 19.7352 4.332782 31.508565 17.961178
2006-07-03 12:44:56 51°15.915 2°53.236 19.7115 4.331409 31.321196 18.3994
2006-07-03 12:45:55 51°15.708 2°53.334 19.6859 4.323924 31.293353 18.43311
2006-07-03 12:46:54 51°15.506 2°53.44 19.8133 4.317176 31.196365 18.601657
2006-07-03 12:47:55 51°15.298 2°53.551 19.6851 4.311483 31.132158 18.97246
2006-07-03 12:48:55 51°15.097 2°53.671 19.61 4.295356 31.080918 19.039879
2006-07-03 12:49:55 51°14.922 2°53.846 19.7019 4.289136 31.039045 19.376973
2006-07-03 12:50:55 51°14.773 2°54.07 19.6497 4.289873 31.018387 19.54552
2006-07-03 12:51:56 51°14.641 2°54.324 19.6825 4.282178 30.97973 19.815195
2006-07-03 12:52:55 51°14.532 2°54.585 19.7568 4.28281 30.959315 19.882614
2006-07-03 12:53:55 51°14.435 2°54.825 19.9031 4.289029 30.937233 20.320836
2006-07-03 12:54:55 51°14.352 2°55.068 20.28 4.30252 30.918968 20.455674
2006-07-03 12:55:55 51°14.253 2°55.277 20.4856 4.26351 30.347517 21.568084
2006-07-03 12:56:56 51°14.153 2°55.39 20.3057 4.049115 28.578742 21.500665
2006-07-03 12:57:56 51°14.071 2°55.453 20.2401 4.044901 28.64641 21.062443
2006-07-03 12:58:55 51°13.995 2°55.508 20.4253 4.000532 28.313831 20.792768
2006-07-03 12:59:54 51°13.915 2°55.564 20.4971 3.905474 27.43696 20.69164
2006-07-03 13:00:56 51°13.83 2°55.632 20.2578 3.887244 27.299181 20.759059
2006-07-03 13:01:54 51°13.758 2°55.706 20.2008 3.952582 27.962533 21.028734
2006-07-03 13:02:56 51°13.699 2°55.808 20.4588 3.863642 27.244836 21.129862
2006-07-03 13:03:55 51°13.656 2°55.911 20.4323 3.711601 25.922041 21.028734
2006-07-03 13:04:54 51°13.626 2°56.006 20.3747 3.761646 26.345867 20.893896
2006-07-03 13:05:56 51°13.611 2°56.077 20.4653 3.752164 26.282553 20.961315
2006-07-03 13:06:55 51°13.603 2°56.094 20.4246 3.730566 26.091639 21.096153
2006-07-03 13:07:55 51°13.603 2°56.098 20.4079 3.74205 26.194502 21.163571
2006-07-03 13:08:54 51°13.603 2°56.097 20.3401 3.755009 26.306389 21.23099